Weather History for West Palm Beach, FL

Change the Weather History Date:

Saturday, November 6, 2010

  Actual Average Record
Temperature  
Mean Temperature 59 °F 74 °F  
Max Temperature 67 °F 82 °F 91 °F (1992)
Min Temperature 50 °F 67 °F 42 °F (1970)
Degree Days  
Heating Degree Days 6 0  
Month to date heating degree days 8 0  
Since 1 July heating degree days 8 1  
Cooling Degree Days 0 9  
Month to date cooling degree days 60 59  
Year to date cooling degree days 3828 3680  
Growing Degree Days 8 (Base 50)    
Moisture  
Dew Point 36 °F    
Average Humidity 44    
Maximum Humidity 59    
Minimum Humidity 28    
Precipitation  
Precipitation 0.00 in 0.17 in 3.62 in (2003)
Month to date precipitation 0.97 1.03  
Year to date precipitation 51.68 55.23  
Snow  
Snow 0.00 in - - ()
Month to date snowfall 0.0  
Since 1 July snowfall 0.0  
Since 1 September snowfall 0.0  
Snow Depth 0.00 in    
Sea Level Pressure  
Sea Level Pressure 30.12 in    
Wind  
Wind Speed 11 mph (NNW)    
Max Wind Speed 21 mph    
Max Gust Speed 25 mph    
Visibility 10 miles    
Events      
T = Trace of Precipitation, MM = Missing Value Source: NWS Daily Summary

Daily Weather History Graph

Daily Weather History Graph

Search for Another Location

Airport:

Trip Planner

Search our weather history database for the weather conditions in past years. The results will help you decide how hot, cold, wet, or windy it might be!

Date:

Astronomy

Nov. 06, 2010 Rise Set
Actual Time 7:33 AM EDT 6:34 PM EDT
Civil Twilight 7:09 AM EDT 6:58 PM EDT
Nautical Twilight 6:41 AM EDT 7:26 PM EDT
Astronomical Twilight 6:14 AM EDT 7:53 PM EDT
Moon 7:58 AM EDT (11/6) 6:52 PM EDT (11/6)
Length of Visible Light 11h 49m
Length of Day
11h 01m
New Moon, 0% of the Moon is Illuminated
Nov 6
New Moon
Nov 13
First Quarter
Nov 21
Full
Nov 28
Last Quarter
Dec 5
New

Hourly Weather History & Observations

Time (EDT) Temp. Dew Point Humidity Pressure Visibility Wind Dir Wind Speed Gust Speed Precip Events Conditions
12:53 AM 55.0 °F 39.9 °F 57% 30.05 in 10.0 mi NNW 6.9 mph - N/A   Clear
1:53 AM 54.0 °F 37.9 °F 55% 30.05 in 10.0 mi NW 10.4 mph - N/A   Clear
2:53 AM 53.1 °F 37.9 °F 57% 30.05 in 10.0 mi NW 11.5 mph - N/A   Clear
3:53 AM 53.1 °F 36.0 °F 52% 30.05 in 10.0 mi NNW 10.4 mph - N/A   Clear
4:53 AM 53.1 °F 35.1 °F 50% 30.06 in 10.0 mi NNW 6.9 mph - N/A   Clear
5:53 AM 51.1 °F 37.0 °F 59% 30.06 in 10.0 mi NNW 6.9 mph - N/A   Clear
6:53 AM 51.1 °F 37.9 °F 61% 30.08 in 10.0 mi NNW 5.8 mph - N/A   Partly Cloudy
7:53 AM 51.1 °F 37.9 °F 61% 30.12 in 10.0 mi NW 9.2 mph - N/A   Scattered Clouds
8:53 AM 54.0 °F 37.9 °F 55% 30.14 in 10.0 mi NNW 9.2 mph - N/A   Partly Cloudy
9:53 AM 60.1 °F 37.0 °F 42% 30.16 in 10.0 mi NNW 11.5 mph - N/A   Partly Cloudy
10:53 AM 62.1 °F 35.1 °F 37% 30.19 in 10.0 mi NNW 9.2 mph 19.6 mph N/A   Partly Cloudy
11:53 AM 64.0 °F 34.0 °F 33% 30.17 in 10.0 mi North 15.0 mph - N/A   Partly Cloudy
12:53 PM 64.9 °F 37.0 °F 36% 30.15 in 10.0 mi NNW 16.1 mph 19.6 mph N/A   Partly Cloudy
1:53 PM 66.0 °F 34.0 °F 30% 30.13 in 10.0 mi NNW 12.7 mph - N/A   Partly Cloudy
2:53 PM 66.0 °F 32.0 °F 28% 30.12 in 10.0 mi North 8.1 mph 19.6 mph N/A   Partly Cloudy
3:53 PM 66.9 °F 33.1 °F 28% 30.11 in 10.0 mi North 8.1 mph 16.1 mph N/A   Partly Cloudy
4:53 PM 66.0 °F 32.0 °F 28% 30.12 in 10.0 mi North 16.1 mph 23.0 mph N/A   Partly Cloudy
5:53 PM 64.0 °F 33.1 °F 31% 30.12 in 10.0 mi North 13.8 mph - N/A   Partly Cloudy
6:53 PM 61.0 °F 37.0 °F 41% 30.15 in 10.0 mi North 8.1 mph - N/A   Partly Cloudy
7:53 PM 60.1 °F 37.0 °F 42% 30.17 in 10.0 mi NNW 11.5 mph - N/A   Partly Cloudy
8:53 PM 57.9 °F 39.9 °F 51% 30.17 in 10.0 mi NW 8.1 mph - N/A   Partly Cloudy
9:53 PM 57.9 °F 39.0 °F 49% 30.18 in 10.0 mi NW 13.8 mph - N/A   Partly Cloudy
10:53 PM 57.9 °F 39.0 °F 49% 30.19 in 10.0 mi NNW 16.1 mph 23.0 mph N/A   Partly Cloudy
11:53 PM 55.9 °F 39.0 °F 53% 30.20 in 10.0 mi NW 15.0 mph - N/A   Partly Cloudy